Ana Sayfa
METAR-TAF:

METAR-TAF

Havaalanları :

Wakefield Municipal Airport

Wakefield, Virginia, Amerika Birleşik Devletleri

Enlem: 36-58-53N, Boylam: 077-00-04W, yükseklik: 34 m

Güncel hava durumu gözlemi

Rapor saat 02:54 UTC de 50 dakika önce yapıldı.
Sakin rüzgar
Sıcaklık 13°C
Nem 94%
Basınç 1017 hPa
Görüş mesafesi: 16.1 km
Açık gökyüzü

METAR: KAKQ 070254Z AUTO 00000KT 10SM CLR 13/12 A3004 RMK AO2 SLP172 T01330117 50007

Saat: 23:44 (03:44 UTC)


TAF: eksik

4.000'den fazla havaalanı için hava durumu gözlemleri ve tahminleri (METAR ve TAF raporları).

Kullanılabilir istasyonlar harita üzerinde sarı ve kırmızı noktalarla gösterilir.

İstasyonun adını görmek için fareyi noktanın üzerinde gezdirin.

Sonrasında hava gözlem ve tahminlerini görmek için tıklayın.

Haritayı değiştirmek için: yaklaştırmak için siyah artı işaretli yeşil düğmeye ve uzaklaştırmak için de eksi işaretli düğmeye hızla tıklayın; bitişik haritalar için yeşil okları kullanın.


METAR-TAF: